STARLINK-6335, 56527

Orbit data source: Space-Track

STARLINK-6335, 56527 is a payload satellite owned by SpaceX/Seattle (US) in LEO that was launched on Sun, 14 May 2023 UTC via an FALCON 9 launch vehicle from the Air Force Eastern Test Range (AFETR). Payload-class satellites include a variety of spacecraft equipped with specific instruments for various scientific and technological missions. These include communications satellites like Starlink; space stations such as the ISS; scientific satellites like the Hubble; Earth observation satellites from companies like Planet Labs, Umbra, and HawkEye 360; GPS; miniature CubeSats for education and research; and military/defense satellites.

Loading next visibility...
Identifier
56527, 2023-065AA
Orbit
LEO
Country
Flag of USUS
Related business
Manufacturer
SpaceX/Seattle
Mission
Operational Commercial Communications
Bus & Motor
STARLINK, Unknown motor
Mass
305 kg wet, ~290 kg dry
Launch date (UTC)
2023-05-14 (3 years ago)
Launch vehicle
FALCON 9
Launch site
Air Force Eastern Test Range (AFETR)
Object type
Payload
Rocket body
Debris
Shape & HBR
Box + 1 Pan, 10.1 m
Radar Cross Section
11.087 m², Large (>1 m²)

Expand to show TLE details & history
Last TLE update: 3 days ago

TLE from 3 days ago
0 STARLINK-6335
1 56527U 23065AA  26170.60471729  .00001030  00000-0  46974-4 0  9991
2 56527  43.0021   0.5352 0001565 270.7516  89.3156 15.27571577172141
Epoch: 2026-06-19T14:30Z
TLE epoch observation values (Epoch: 2026-06-19T14:30:47.573Z)
Latitude
-0.00006°
Longitude
-124.99438°
Altitude
482.837 km
Speed
7.626 km/s
True Right ascension
00h 02m 08s
True Declination
0° 00' 00"
Sunlit
Object was in daylight at epoch
Visualization orbit readout
Latitude
Unknown
Longitude
Unknown
Altitude
Unknown
Speed
Unknown
Apparent Right ascension
Unknown
Apparent Declination
Unknown
Sunlit
N/A
Visualization observer readout
Local Sidereal Time
21:25:43
Azimuth
Unknown
Elevation
Unknown
Doppler factor
Unknown
Orbital elements
Apogee altitude
486.093 km
Perigee altitude
483.945 km
Semi-major axis
6,863.156 km
Eccentricity
0.00016
Inclination
43.0021°
RAAN
0.5352°
Arg. of periapsis
270.7516°
True anomaly
89.33353°
Mean anomaly
89.3156°
Eccentric anomaly
89.32457°
Mean motion
3.81731 °/min
Orbital period
94.31 mins
BSTAR
0.000046974
Loading maneuver chart data...
Computing Atmospheric mass density...
Loading historical data...
Loading historical data...
Loading historical data...
Loading historical data...
Loading historical data...
Loading historical data...
Loading historical data...

Documentation

Showing up to 5 results
|